Location: Newark
(45.6833°N, 12.6333°E)
Time: 11:21:58
(UTC+00:00)

N. Korean satellite - Pass Details

Date: 17 November 2019
Orbit: 455 x 507 km, 97.2° (Epoch: 12 December)

Event Time Altitude Azimuth Distance (km) Brightness Sun altitude
Rises 03:51:24 0° 34° (NE) 2,619 10.7 -24.3°
Reaches altitude 10° 03:54:55 10° 70° (ENE) 1,719 10.2 -23.6°
Maximum altitude 03:56:08 11° 89° (E) 1,633 10.3 -23.4°
Drops below altitude 10° 03:57:20 10° 108° (ESE) 1,709 10.4 -23.2°
Sets 04:00:47 0° 144° (SE) 2,573 10.8 -22.6°
